OTTER

导读

OTTER(水獭)是美国Starfish公司开发的下一代服务型航天器,依托前期Remora任务验证的自主交会技术,计划于2026年正式启动任务,将为SES、美国太空军及NASA等客户提供卫星延寿、在轨维修与太空碎片处理服务,被誉为太空“4S店”,是商用在轨服务领域的重要探索。

基本信息
目录编号:
62623
目录名称:
OTTER
国际标识:
2025-009Q
轨道中心:
EARTH
卫星名称:
OTTER
卫星全名:
OTTER
卫星状态:
在轨 (已飞行599 天)
发射日期:
2025-01-14 UTC
国别 :
美国 (US)
星等 :
--
轨道信息
数据来源 国际轨道数据
星历时间: 2026-09-04T12:23:05+0800
1天前
查看轨道信息
半长轴: 6850.381km
偏心率: 0.0005366
轨道倾角: 97.398°
近地点辐角 45.967°
升交点赤经 329.098°
平近点角 314.201°
近地点: 468.568km
远地点: 475.92km
周期: 94.044分钟
每日圈数: 15.311958
详细信息
使用方式:
暂无
2D轨道图
3D轨道图
轨道高度分析图
轨道倾角分析图
轨道综合分析图
查看轨道综合分析图
交会数据列表
事件ID 空间交会对象 最接近时刻(TCA) 交会距离 交会风险概率(CRP) 交会风险指数(CRI) 操作
CDM_260906-125205-263506-262322
OTTER (62623)
2026-09-06T
12:52:46+0000
0.664 km
远距离
9.941218E-5 中风险 0.75
CDM_260907-061904-836006-262322
OTTER (62623)
2026-09-07T
06:19:58+0000
1.148 km
极远距离
1.434902E-5 中风险 0.58
CDM_260830-033206-223206-262323
OTTER (62623)
2026-08-30T
03:32:35+0000
1.621 km
极远距离
5.207236E-6 低风险 0.49
CDM_260906-235605-379506-262322
OTTER (62623)
2026-09-06T
23:56:24+0000
1.690 km
极远距离
4.559659E-6 低风险 0.48
CDM_260906-093405-362306-262321
OTTER (62623)
2026-09-06T
09:34:33+0000
2.123 km
极远距离
2.440116E-6 低风险 0.43
CDM_260831-014104-783306-262322
OTTER (62623)
2026-08-31T
01:41:50+0000
2.174 km
极远距离
2.314012E-6 低风险 0.42
CDM_260906-221205-018506-262322
OTTER (62623)
2026-09-06T
22:12:34+0000
2.500 km
极远距离
1.751193E-6 低风险 0.4
CDM_260907-140304-841006-262321
OTTER (62623)
2026-09-07T
14:03:15+0000
2.814 km
极远距离
1.444035E-6 低风险 0.38
CDM_260905-141706-262306-382921
OTTER (62623)
2026-09-05T
14:17:36+0000
2.685 km
极远距离
1.34631E-6 低风险 0.38
CDM_260907-043004-857406-262321
OTTER (62623)
2026-09-07T
04:30:35+0000
2.472 km
极远距离
1.033749E-6 低风险 0.35